Regional Weather Roundup
Issued by NWS Kansas City/Pleasant Hill, MO

Home | Current Version | Previous Version | Text Only | Print | Product List | Glossary On
Versions: 1 2 3 4 5 6 7 8 9 10 11 12 13 14 15 16 17 18 19 20 21 22 23 24 25 26 27 28 29 30 31 32 33 34 35 36 37 38 39 40 41 42 43 44 45 46 47 48 49 50
000
ASUS43 KEAX 261910
RWREAX

WEATHER ROUNDUP FOR EASTERN KANSAS AND NORTHWEST MISSOURI
NATIONAL WEATHER SERVICE KANSAS CITY/PLEASANT HILL MO
200 PM CDT TUE JUL 26 2016

KSZ040-057-103>105-MOZ028-029-037-043-262000-
...KANSAS CITY METROPOLITAN AREA...

CITY           SKY/WX    TMP DP  RH WIND       PRES   REMARKS
K.C. INTL      MOSUNNY   86  65  49 NE6       30.05F
K.C. DOWNTOWN  SUNNY     87  65  47 E7        30.03F
LEES SUMMIT    MOSUNNY   84  67  56 E6        30.05F
OLATHE - IXD   CLOUDY    85  67  54 SE8       30.05F
OLATHE - OJC   MOSUNNY   83  64  52 SE7       30.05F
LAWRENCE       MOSUNNY   87  68  52 E8        30.03F HX  90

$$

MOZ001>008-011>017-020>025-030>033-038>040-044>046-053-054-262000-
...NORTHERN AND CENTRAL MISSOURI...

CITY           SKY/WX    TMP DP  RH WIND       PRES   REMARKS
ST. JOSEPH     MOSUNNY   87  66  49 CALM      30.04F
MOSBY          PTCLDY    84  64  51 E3        30.04F
WHITEMAN AFB   PTSUNNY   84  71  63 E8        30.02F
CLINTON        MOSUNNY   84  72  65 CALM      30.03F
SEDALIA        SUNNY     88  71  57 N5        30.04F HX  94
WARSAW         NOT AVBL
CHILLICOTHE      N/A     86  65  49 CALM      30.05F
KIRKSVILLE     MOSUNNY   85  63  47 CALM      30.06F

$$

MOZ041-047>049-056>058-063>065-088>090-097-262000-
...EASTERN AND SOUTHERN MISSOURI...

CITY           SKY/WX    TMP DP  RH WIND       PRES   REMARKS
ST. LOUIS INTL PTSUNNY   88  72  58 NE6       30.00F HX  94
SPIRIT OF STL  PTSUNNY   89  76  65 NE9       29.98F HX 100
COLUMBIA       MOSUNNY   87  70  56 NE3       30.02F HX  92
JEFFERSON CITY SUNNY     87  72  60 VRB3      30.00F HX  93
ROLLA          PTSUNNY   85  74  69 NW8       30.00F HX  92
OSAGE BEACH    PTSUNNY   85  74  69 VRB5      30.02F HX  92
SPRINGFIELD    PTSUNNY   87  74  64 NE8       30.00F HX  95
BRANSON        PTSUNNY   86  75  70 NE3       30.02F HX  95
JOPLIN         PTSUNNY   87  76  69 N6        29.99F HX  97
WEST PLAINS    CLOUDY    76  71  85 E5        30.04S

$$

IAZ060-094-KSZ022-034>040-054-083-096-NEZ052-066-093-262000-
...KANSAS...SOUTHEAST NEBRASKA AND IOWA...

CITY           SKY/WX    TMP DP  RH WIND       PRES   REMARKS
TOPEKA         SUNNY     86  66  51 VRB5      30.03F
MANHATTAN      SUNNY     86  68  54 NE7       30.03F
EMPORIA        MOSUNNY   84  69  60 NE10      30.04F
CHANUTE        CLOUDY    86  73  65 NE7       30.01F HX  93
WICHITA        PTSUNNY   89  71  55 E10       30.01F HX  95
OMAHA          PTSUNNY   86  62  44 SE9       30.05F
LINCOLN        SUNNY     86  65  49 MISG      30.06F
FALLS CITY     SUNNY     85  69  58 CALM      30.04F
LAMONI         SUNNY     84  66  54 NE5       30.06F
DES MOINES     MOSUNNY   86  63  45 E8        30.05F

$$




USA.gov is the U.S. government's official web portal to all federal, state and local government web resources and services.